Change the Weather History Date:

Thursday, August 30, 2012

  Actual Average (KWRL) Record (KWRL)
Temperature  
Mean Temperature 67 °F 66 °F  
Max Temperature 75 °F 83 °F 99 °F (1999)
Min Temperature 59 °F 49 °F 34 °F (1964)
Degree Days  
Heating Degree Days 0 2  
Month to date heating degree days 18  
Since 1 June heating degree days 124  
Since 1 July heating degree days 31  
Cooling Degree Days 2 3  
Month to date cooling degree days 178  
Year to date cooling degree days 503  
Since 1 June cooling degree days 491  
Growing Degree Days 17 (Base 50)    
Moisture  
Dew Point 26 °F    
Average Humidity 22    
Maximum Humidity 52    
Minimum Humidity 9    
Precipitation  
Precipitation 0.00 in 0.01 in 0.41 in (1971)
Month to date precipitation 0.41  
Year to date precipitation 5.43  
Sea Level Pressure  
Sea Level Pressure 30.28 in    
Wind  
Wind Speed 11 mph ()    
Max Wind Speed 32 mph    
Max Gust Speed 44 mph    
Visibility 9.7 miles    
Events      
T = Trace of Precipitation, MM = Missing Value Source: Averaged Metar Reports

Daily Weather History Graph

Daily Weather History Graph

Search for Another Location

Airport or City:

Trip Planner

Search our weather history database for the weather conditions in past years. The results will help you decide how hot, cold, wet, or windy it might be!

Date:

Astronomy

Aug. 30, 2012 Rise Set
Actual Time 6:35 AM MDT 7:50 PM MDT
Civil Twilight 6:05 AM MDT 8:20 PM MDT
Nautical Twilight 5:30 AM MDT 8:55 PM MDT
Astronomical Twilight 4:52 AM MDT 9:32 PM MDT
Moon 7:05 PM MDT (8/30) 5:39 AM MDT (8/30)
Length of Visible Light 14h 14m
Length of Day
13h 15m
Waxing Gibbous, 99% of the Moon is Illuminated
Aug 30
Waxing Gibbous
Aug 31
Full
Sep 8
Last Quarter
Sep 15
New
Sep 22
First Quarter

Hourly Weather History & Observations

Time (MDT) Temp. Dew Point Humidity Pressure Visibility Wind Dir Wind Speed Gust Speed Precip Events Conditions
12:15 AM 71.6 °F 10.4 °F 9% 30.26 in 5.0 mi North 12.7 mph - N/A   Haze
12:35 AM 71.6 °F 10.4 °F 9% 30.26 in 5.0 mi North 12.7 mph - N/A   Haze
12:55 AM 69.8 °F 10.4 °F 10% 30.26 in 5.0 mi North 9.2 mph - N/A   Haze
1:15 AM 69.8 °F 10.4 °F 10% 30.26 in 7.0 mi NNE 11.5 mph - N/A   Scattered Clouds
1:35 AM 68.0 °F 10.4 °F 11% 30.26 in 10.0 mi North 11.5 mph - N/A   Scattered Clouds
1:55 AM 68.0 °F 10.4 °F 11% 30.26 in 10.0 mi NNE 9.2 mph - N/A   Scattered Clouds
2:15 AM 69.8 °F 10.4 °F 10% 30.26 in 10.0 mi NE 6.9 mph - N/A   Scattered Clouds
2:35 AM 69.8 °F 10.4 °F 10% 30.26 in 10.0 mi North 4.6 mph - N/A   Scattered Clouds
2:55 AM 69.8 °F 10.4 °F 10% 30.27 in 10.0 mi NNE 3.5 mph - N/A   Scattered Clouds
3:15 AM 69.8 °F 10.4 °F 10% 30.28 in 10.0 mi Calm Calm - N/A   Mostly Cloudy
3:35 AM 69.8 °F 10.4 °F 10% 30.28 in 10.0 mi SE 10.4 mph - N/A   Overcast
3:55 AM 69.8 °F 28.4 °F 21% 30.27 in 10.0 mi SSE 21.9 mph 36.8 mph N/A   Overcast
4:15 AM 69.8 °F 21.2 °F 16% 30.26 in 10.0 mi SSE 11.5 mph 20.7 mph N/A   Overcast
4:35 AM 69.8 °F 19.4 °F 15% 30.26 in 10.0 mi South 12.7 mph 21.9 mph N/A   Overcast
4:55 AM 69.8 °F 12.2 °F 11% 30.27 in 10.0 mi SE 11.5 mph 28.8 mph N/A   Overcast
5:15 AM 66.2 °F 12.2 °F 12% 30.28 in 10.0 mi SE 11.5 mph - N/A   Mostly Cloudy
5:35 AM 64.4 °F 17.6 °F 16% 30.28 in 10.0 mi SE 15.0 mph 19.6 mph N/A   Scattered Clouds
5:55 AM 62.6 °F 21.2 °F 20% 30.28 in 10.0 mi SE 16.1 mph - N/A   Scattered Clouds
6:35 AM 62.6 °F 19.4 °F 19% 30.29 in 10.0 mi SSE 9.2 mph - N/A   Overcast
6:55 AM 64.4 °F 21.2 °F 19% 30.29 in 10.0 mi SE 8.1 mph - N/A   Overcast
7:35 AM 62.6 °F 23.0 °F 22% 30.29 in 10.0 mi SE 15.0 mph - N/A   Mostly Cloudy
7:55 AM 62.6 °F 23.0 °F 22% 30.30 in 10.0 mi ESE 12.7 mph - N/A   Mostly Cloudy
8:15 AM 62.6 °F 23.0 °F 22% 30.31 in 10.0 mi East 13.8 mph 19.6 mph N/A   Mostly Cloudy
8:35 AM 62.6 °F 23.0 °F 22% 30.31 in 10.0 mi East 15.0 mph - N/A   Scattered Clouds
8:55 AM 62.6 °F 23.0 °F 22% 30.32 in 10.0 mi East 13.8 mph 17.3 mph N/A   Mostly Cloudy
9:15 AM 64.4 °F 23.0 °F 21% 30.31 in 10.0 mi East 6.9 mph - N/A   Mostly Cloudy
9:35 AM 64.4 °F 23.0 °F 21% 30.32 in 10.0 mi ESE 4.6 mph - N/A   Scattered Clouds
10:15 AM 59.0 °F 26.6 °F 29% 30.33 in 10.0 mi Calm Calm - N/A   Scattered Clouds
10:35 AM 68.0 °F 23.0 °F 18% 30.32 in 10.0 mi ESE 4.6 mph - N/A   Scattered Clouds
10:55 AM 71.6 °F 23.0 °F 16% 30.32 in 10.0 mi SE 4.6 mph - N/A   Clear
11:15 AM 69.8 °F 24.8 °F 18% 30.32 in 10.0 mi NW 9.2 mph - N/A   Clear
11:35 AM 64.4 °F 26.6 °F 24% 30.31 in 10.0 mi North 4.6 mph - N/A   Clear
11:55 AM 68.0 °F 26.6 °F 21% 30.31 in 10.0 mi Calm Calm - N/A   Clear
12:15 PM 73.4 °F 23.0 °F 15% 30.31 in 10.0 mi Calm Calm - N/A   Clear
12:35 PM 75.2 °F 23.0 °F 14% 30.30 in 10.0 mi SSE 6.9 mph - N/A   Clear
12:55 PM 75.2 °F 23.0 °F 14% 30.30 in 10.0 mi SSE 8.1 mph - N/A   Clear
1:15 PM 75.2 °F 21.2 °F 13% 30.30 in 10.0 mi ESE 4.6 mph - N/A   Scattered Clouds
1:35 PM 75.2 °F 21.2 °F 13% 30.30 in 10.0 mi SE 8.1 mph - N/A   Mostly Cloudy
1:55 PM 73.4 °F 23.0 °F 15% 30.30 in 10.0 mi SE 11.5 mph - N/A   Overcast
2:15 PM 73.4 °F 23.0 °F 15% 30.31 in 10.0 mi South 16.1 mph 19.6 mph N/A   Overcast
2:35 PM 73.4 °F 28.4 °F 19% 30.31 in 10.0 mi South 13.8 mph 18.4 mph N/A   Mostly Cloudy
2:55 PM 73.4 °F 28.4 °F 19% 30.31 in 10.0 mi South 13.8 mph 19.6 mph N/A   Overcast
3:15 PM 73.4 °F 30.2 °F 20% 30.30 in 10.0 mi SSE 12.7 mph 19.6 mph N/A   Overcast
3:35 PM 73.4 °F 28.4 °F 19% 30.30 in 10.0 mi SSE 13.8 mph 24.2 mph N/A   Mostly Cloudy
3:55 PM 73.4 °F 28.4 °F 19% 30.29 in 10.0 mi South 13.8 mph 17.3 mph N/A   Clear
4:15 PM 73.4 °F 28.4 °F 19% 30.28 in 10.0 mi SSE 8.1 mph - N/A   Clear
4:35 PM 73.4 °F 28.4 °F 19% 30.26 in 10.0 mi SE 13.8 mph 20.7 mph N/A   Clear
4:55 PM 71.6 °F 32.0 °F 23% 30.26 in 10.0 mi SE 13.8 mph - N/A   Clear
5:15 PM 73.4 °F 30.2 °F 20% 30.26 in 10.0 mi SE 11.5 mph - N/A   Clear
5:35 PM 71.6 °F 30.2 °F 22% 30.26 in 10.0 mi ESE 11.5 mph 17.3 mph N/A   Clear
5:55 PM 71.6 °F 30.2 °F 22% 30.26 in 10.0 mi SE 13.8 mph - N/A   Clear
6:15 PM 71.6 °F 30.2 °F 22% 30.26 in 10.0 mi SE 13.8 mph - N/A   Clear
6:35 PM 71.6 °F 30.2 °F 22% 30.26 in 10.0 mi SE 13.8 mph - N/A   Clear
6:55 PM 71.6 °F 32.0 °F 23% 30.26 in 10.0 mi SE 13.8 mph 20.7 mph N/A   Scattered Clouds
7:15 PM 71.6 °F 32.0 °F 23% 30.26 in 10.0 mi SE 15.0 mph - N/A   Mostly Cloudy
7:35 PM 69.8 °F 33.8 °F 27% 30.26 in 10.0 mi SE 16.1 mph - N/A   Overcast
7:55 PM 69.8 °F 33.8 °F 27% 30.26 in 10.0 mi SE 13.8 mph - N/A   Overcast
8:15 PM 69.8 °F 33.8 °F 27% 30.26 in 10.0 mi SE 17.3 mph - N/A   Overcast
8:35 PM 64.4 °F 44.6 °F 49% 30.27 in 10.0 mi SE 32.2 mph 43.7 mph N/A   Overcast
8:55 PM 64.4 °F 44.6 °F 49% 30.28 in 10.0 mi SE 26.5 mph 35.7 mph N/A   Overcast
9:15 PM 62.6 °F 44.6 °F 52% 30.28 in 10.0 mi SE 25.3 mph 31.1 mph N/A   Mostly Cloudy
9:35 PM 62.6 °F 44.6 °F 52% 30.29 in 10.0 mi SE 23.0 mph 34.5 mph N/A   Mostly Cloudy
9:55 PM 62.6 °F 44.6 °F 52% 30.29 in 10.0 mi ESE 17.3 mph - N/A   Overcast
10:15 PM 62.6 °F 42.8 °F 48% 30.28 in 10.0 mi SE 20.7 mph - N/A   Overcast
10:35 PM 64.4 °F 42.8 °F 45% 30.29 in 10.0 mi SE 18.4 mph 24.2 mph N/A   Mostly Cloudy
11:15 PM 62.6 °F 42.8 °F 48% 30.28 in 10.0 mi SE 26.5 mph - N/A   Scattered Clouds
11:35 PM 62.6 °F 42.8 °F 48% 30.28 in 10.0 mi SE 21.9 mph - N/A   Mostly Cloudy
11:55 PM 62.6 °F 42.8 °F 48% 30.28 in 10.0 mi SE 21.9 mph - N/A   Mostly Cloudy